TimePST,TemperatureF,Dew PointF,Humidity,Sea Level PressureIn,VisibilityMPH,Wind Direction,Wind SpeedMPH,Gust SpeedMPH,PrecipitationIn,Events,Conditions,WindDirDegrees,DateUTC
12:56 AM,46.9,39.0,74,30.15,10.0,Calm,Calm,-,N/A,,Clear,0,2014-01-02 08:56:00
1:56 AM,45.0,37.0,74,30.16,10.0,Calm,Calm,-,N/A,,Clear,0,2014-01-02 09:56:00
2:56 AM,44.1,37.0,76,30.16,10.0,SSW,3.5,-,N/A,,Clear,200,2014-01-02 10:56:00
3:56 AM,44.1,37.0,76,30.15,10.0,South,3.5,-,N/A,,Clear,170,2014-01-02 11:56:00
4:56 AM,44.1,37.0,76,30.15,10.0,SSW,4.6,-,N/A,,Clear,200,2014-01-02 12:56:00
5:56 AM,44.1,37.0,76,30.15,10.0,Calm,Calm,-,N/A,,Clear,0,2014-01-02 13:56:00
6:56 AM,45.0,37.9,76,30.15,10.0,Calm,Calm,-,N/A,,Clear,0,2014-01-02 14:56:00
7:56 AM,45.0,37.9,76,30.15,10.0,Calm,Calm,-,N/A,,Partly Cloudy,0,2014-01-02 15:56:00
8:56 AM,50.0,41.0,71,30.17,10.0,Calm,Calm,-,N/A,,Scattered Clouds,0,2014-01-02 16:56:00
9:56 AM,53.1,43.0,69,30.18,10.0,Calm,Calm,-,N/A,,Scattered Clouds,0,2014-01-02 17:56:00
10:56 AM,55.0,45.0,69,30.17,10.0,North,3.5,-,N/A,,Scattered Clouds,360,2014-01-02 18:56:00
11:56 AM,57.0,39.0,51,30.14,10.0,Calm,Calm,-,N/A,,Scattered Clouds,0,2014-01-02 19:56:00
12:56 PM,57.9,37.9,47,30.12,10.0,Calm,Calm,-,N/A,,Mostly Cloudy,0,2014-01-02 20:56:00
1:56 PM,60.1,36.0,41,30.09,10.0,ENE,3.5,-,N/A,,Mostly Cloudy,60,2014-01-02 21:56:00
2:56 PM,59.0,39.0,48,30.07,10.0,Calm,Calm,-,N/A,,Mostly Cloudy,0,2014-01-02 22:56:00
3:56 PM,59.0,39.0,48,30.07,10.0,Calm,Calm,-,N/A,,Mostly Cloudy,0,2014-01-02 23:56:00
4:56 PM,60.1,34.0,38,30.07,10.0,Calm,Calm,-,N/A,,Mostly Cloudy,0,2014-01-03 00:56:00
5:56 PM,57.0,37.0,47,30.06,10.0,Calm,Calm,-,N/A,,Scattered Clouds,0,2014-01-03 01:56:00
6:56 PM,55.9,37.0,49,30.06,10.0,SSE,3.5,-,N/A,,Mostly Cloudy,160,2014-01-03 02:56:00
7:56 PM,55.0,39.0,55,30.06,10.0,East,3.5,-,N/A,,Mostly Cloudy,100,2014-01-03 03:56:00
8:56 PM,54.0,42.1,64,30.06,10.0,Calm,Calm,-,N/A,,Scattered Clouds,0,2014-01-03 04:56:00
9:56 PM,52.0,45.0,77,30.06,10.0,Calm,Calm,-,N/A,,Scattered Clouds,0,2014-01-03 05:56:00
10:56 PM,53.1,37.9,57,30.06,10.0,Calm,Calm,-,N/A,,Partly Cloudy,0,2014-01-03 06:56:00
11:56 PM,52.0,44.1,74,30.06,10.0,Calm,Calm,-,N/A,,Partly Cloudy,0,2014-01-03 07:56:00